Regional Weather Roundup
Issued by NWS

Home | Current Version | Previous Version | Text Only | Print | Product List | Glossary On
Versions: 1 2 3 4 5 6 7 8 9 10 11 12 13 14 15 16 17 18 19 20 21 22 23 24 25 26 27 28 29 30 31 32 33 34 35 36 37 38 39 40 41 42 43 44 45 46 47 48 49 50
000
ASUS43 KTOP 290559
RWRKS

WEATHER ROUNDUP FOR KANSAS
NATIONAL WEATHER SERVICE GOODLAND KS
100 AM CDT SAT JUL 29 2017

NOTE:  "FAIR" INDICATES FEW OR NO CLOUDS BELOW 12,000 FEET WITH NO
SIGNIFICANT WEATHER AND/OR OBSTRUCTIONS TO VISIBILITY.

KSZ001>006-013>018-027>032-041>047-290700-
NORTHWEST KANSAS

CITY           SKY/WX    TMP DP  RH WIND       PRES   REMARKS
GOODLAND       LGT RAIN  68  60  75 S25G32    30.06F
6HR MIN TEMP:  66; 6HR MAX TEMP:  85; 6HR PCP:  0.17;

HAYS           MOCLDY    75  66  73 SE12      30.04R
HILL CITY      MOCLDY    76  63  64 SE9       30.04R
6HR MIN TEMP:  75; 6HR MAX TEMP:  88;

RUSSELL        CLOUDY    75  66  73 SE15      30.02S
6HR MIN TEMP:  73; 6HR MAX TEMP:  89;

$$

KSZ061>065-074>080-084>089-290700-
SOUTHWEST KANSAS

CITY           SKY/WX    TMP DP  RH WIND       PRES   REMARKS
DODGE CITY     CLOUDY    71  60  68 E6        30.06R
6HR MIN TEMP:  69; 6HR MAX TEMP:  89;

ELKHART          N/A    N/A N/A N/A MISG        N/A
GARDEN CITY    MOCLDY    76  58  53 NW12G20   30.08R
6HR MIN TEMP:  74; 6HR MAX TEMP:  89;

GREAT BEND     PTCLDY    75  67  76 E12       30.04R
LIBERAL        PTCLDY    76  65  68 E8        30.05F
$$

KSZ066>073-081>083-090>101-290700-
SOUTHEAST KANSAS

CITY           SKY/WX    TMP DP  RH WIND       PRES   REMARKS
CHANUTE        CLEAR     71  62  73 NE6       30.01S
6HR MIN TEMP:  71; 6HR MAX TEMP:  85;

COFFEYVILLE    CLEAR     70  65  84 N6        29.99R
6HR MIN TEMP:  70; 6HR MAX TEMP:  89;

HUTCHINSON     CLEAR     74  66  76 E9        30.02S
6HR MIN TEMP:  74; 6HR MAX TEMP:  90;

MEDICINE LODGE   N/A     78  62  57 E6        30.00R
NEWTON         CLEAR     71  66  84 E7        30.04S
PARSONS        CLEAR     69  64  84 CALM      30.01R
6HR MIN TEMP:  68; 6HR MAX TEMP:  86;

WICHITA INTL   PTCLDY    76  66  71 E9        30.01S
6HR MIN TEMP:  76; 6HR MAX TEMP:  90;

WICHITA JABRA  CLEAR     71  66  84 E6        30.02S
6HR MIN TEMP:  71; 6HR MAX TEMP:  87;

WICHITA MCCONL CLEAR     75  64  69 E7        30.02S
WINFIELD       CLEAR     76  65  68 E9        30.01S
6HR MIN TEMP:  76; 6HR MAX TEMP:  91;

$$

KSZ007>012-019>026-033>040-048>060-102>105-290700-
NORTHEAST KANSAS

CITY           SKY/WX    TMP DP  RH WIND       PRES   REMARKS
CONCORDIA      CLOUDY    67  66  97 E3        30.04F
6HR MIN TEMP:  67; 6HR MAX TEMP:  84;

EMPORIA        CLEAR     67  64  90 CALM      30.03S
6HR MIN TEMP:  67; 6HR MAX TEMP:  84;

LAWRENCE       PTCLDY    67  66  97 NW3       30.03S
6HR MIN TEMP:  66; 6HR MAX TEMP:  82;

MANHATTAN      PTCLDY    70  66  87 CALM      30.04R
6HR MIN TEMP:  69; 6HR MAX TEMP:  85;

OLATHE IND     PTCLDY    70  63  78 NE3       30.04S
6HR MIN TEMP:  68; 6HR MAX TEMP:  82;

OLATHE EXE     PTCLDY    71  63  75 NE6       30.04R
6HR MIN TEMP:  70; 6HR MAX TEMP:  80;

SALINA         PTCLDY    76  66  71 E9        30.03F
6HR MIN TEMP:  76; 6HR MAX TEMP:  90;

TOPEKA BILLARD PTCLDY    69  68  96 CALM      30.03S
6HR MIN TEMP:  69; 6HR MAX TEMP:  84;

TOPEKA FORBES  CLOUDY    68  66  93 CALM      30.04S
6HR MIN TEMP:  68; 6HR MAX TEMP:  83;

$$




USA.gov is the U.S. government's official web portal to all federal, state and local government web resources and services.